Weather History for KAGS - January, 2013

Change the Weather History Date:

Tuesday, January 1, 2013

  Actual Average Record
Temperature  
Mean Temperature 55 °F 45 °F  
Max Temperature 69 °F 57 °F 80 °F (1985)
Min Temperature 41 °F 33 °F 12 °F (1918)
Degree Days  
Heating Degree Days 10 20  
Month to date heating degree days 10 20  
Since 1 July heating degree days 936 995  
Cooling Degree Days 0 0  
Month to date cooling degree days 0 0  
Year to date cooling degree days 0 0  
Growing Degree Days 5 (Base 50)    
Moisture  
Dew Point 48 °F    
Average Humidity 76    
Maximum Humidity 96    
Minimum Humidity 55    
Precipitation  
Precipitation 0.01 in 0.12 in 2.22 in (1987)
Month to date precipitation 0.01 0.12  
Year to date precipitation 0.01 0.12  
Sea Level Pressure  
Sea Level Pressure 30.05 in    
Wind  
Wind Speed 4 mph (West)    
Max Wind Speed 16 mph    
Max Gust Speed 20 mph    
Visibility 9 miles    
Events Rain    
T = Trace of Precipitation, MM = Missing Value Source: NWS Daily Summary

Daily Weather History Graph

Daily Weather History Graph

Search for Another Location

Airport or City:

Trip Planner

Search our weather history database for the weather conditions in past years. The results will help you decide how hot, cold, wet, or windy it might be!

Date:

Astronomy

Jan. 01, 2013 Rise Set
Actual Time 7:31 AM EST 5:31 PM EST
Civil Twilight 7:04 AM EST 5:58 PM EST
Nautical Twilight 6:33 AM EST 6:29 PM EST
Astronomical Twilight 6:03 AM EST 7:00 PM EST
Moon 9:46 PM EST (1/1) 9:56 AM EST (1/1)
Length of Visible Light 10h 54m
Length of Day
9h 59m
Waning Gibbous, 83% of the Moon is Illuminated
Jan 1
Waning Gibbous
Jan 4
Last Quarter
Jan 11
New
Jan 18
First Quarter
Jan 26
Full

Hourly Weather History & Observations

Time (EST) Temp. Windchill Dew Point Humidity Pressure Visibility Wind Dir Wind Speed Gust Speed Precip Events Conditions
12:53 AM 51.1 °F - 43.0 °F 74% 30.16 in 10.0 mi SSW 4.6 mph - N/A   Overcast
1:53 AM 50.0 °F - 42.1 °F 74% 30.14 in 10.0 mi Calm Calm - N/A   Partly Cloudy
2:53 AM 45.0 °F 43.5 °F 41.0 °F 86% 30.12 in 10.0 mi South 3.5 mph - N/A   Partly Cloudy
3:53 AM 43.0 °F 41.3 °F 39.9 °F 89% 30.13 in 10.0 mi SW 3.5 mph - N/A   Clear
4:53 AM 45.0 °F 41.8 °F 42.1 °F 90% 30.11 in 10.0 mi South 5.8 mph - N/A   Clear
5:53 AM 44.1 °F - 41.0 °F 89% 30.10 in 10.0 mi Calm Calm - N/A   Clear
6:53 AM 43.0 °F - 41.0 °F 93% 30.12 in 9.0 mi Calm Calm - N/A   Clear
7:53 AM 45.0 °F - 43.0 °F 93% 30.13 in 9.0 mi Calm Calm - N/A   Overcast
8:53 AM 46.9 °F - 44.1 °F 90% 30.13 in 10.0 mi Calm Calm - N/A   Overcast
9:53 AM 51.1 °F - 46.0 °F 83% 30.13 in 10.0 mi South 3.5 mph - N/A   Overcast
10:53 AM 55.0 °F - 46.9 °F 74% 30.12 in 10.0 mi South 4.6 mph - N/A   Overcast
11:53 AM 60.1 °F - 48.9 °F 67% 30.10 in 10.0 mi Calm Calm - N/A   Overcast
12:53 PM 64.0 °F - 50.0 °F 60% 30.05 in 10.0 mi NNW 3.5 mph - N/A   Overcast
1:53 PM 66.9 °F - 52.0 °F 59% 30.01 in 10.0 mi SW 9.2 mph 16.1 mph N/A   Overcast
2:53 PM 68.0 °F - 52.0 °F 56% 29.99 in 10.0 mi SW 11.5 mph - N/A   Mostly Cloudy
3:53 PM 66.9 °F - 52.0 °F 59% 29.99 in 10.0 mi WSW 4.6 mph - N/A   Overcast
4:53 PM 64.9 °F - 53.1 °F 65% 29.98 in 10.0 mi Calm Calm - N/A   Overcast
5:53 PM 62.1 °F - 52.0 °F 70% 29.98 in 10.0 mi North 6.9 mph - N/A   Overcast
6:53 PM 59.0 °F - 50.0 °F 72% 29.99 in 10.0 mi North 6.9 mph - N/A   Overcast
7:53 PM 57.9 °F - 51.1 °F 78% 29.97 in 10.0 mi Calm Calm - N/A   Overcast
8:53 PM 55.9 °F - 51.1 °F 84% 29.96 in 10.0 mi NNW 5.8 mph - N/A   Mostly Cloudy
9:53 PM 55.9 °F - 52.0 °F 87% 29.95 in 10.0 mi NNW 5.8 mph - N/A   Overcast
10:53 PM 55.0 °F - 53.1 °F 93% 29.95 in 4.0 mi North 4.6 mph - 0.00 in Rain Light Rain
11:42 PM 55.4 °F - 53.6 °F 94% 29.93 in 5.0 mi Calm Calm - 0.01 in   Overcast
11:53 PM 55.0 °F - 53.1 °F 93% 29.93 in 4.0 mi NNW 6.9 mph - 0.01 in   Overcast